Location: *
(45.8167°N, 9.3000°E)
Time: 05:20:29
(UTC+00:00)

Daily predictions for brighter satellites

Satellite Brightness Start Highest point End
(mag) Time Altitude Azimuth Time Altitude Azimuth Time Altitude Azimuth
Cosmos 2227 Rocket 3.9 00:09:14 23° E 00:09:14 23° E 00:12:47 10° NE
Cosmos 2056 Rocket 4.4 00:15:11 44° ENE 00:15:11 44° ENE 00:19:12 10° NNE
Cosmos 2360 Rocket 4.1 00:10:14 10° NW 00:12:15 19° WNW 00:12:15 19° WNW
ATLAS 2AS CENTAUR R/B 3.2 00:07:47 10° NW 00:15:32 62° NE 00:18:43 35° ESE
SL-16 R/B 3.5 00:14:55 36° E 00:16:21 41° ENE 00:22:05 10° N
COSMOS 2428 3.5 00:12:21 10° NNW 00:16:11 43° NW 00:16:11 43° NW
H-2A R/B 3.9 00:20:42 26° NE 00:20:42 26° NE 00:23:31 10° N
Cosmos 2219 Rocket 3.1 00:15:54 10° NNW 00:19:32 41° NW 00:19:32 41° NW
Resurs 1-4 Rocket 3.6 00:17:20 10° NE 00:21:24 27° E 00:21:24 27° E
Cosmos 2297 Rocket 3.4 00:24:48 32° E 00:24:48 32° E 00:29:05 10° NE
USA 215 3.1 00:26:59 10° NE 00:33:34 86° SE 00:33:42 85° S
NOSS 0 Rocket 4.1 00:37:57 10° NNW 00:43:13 64° NW 00:43:13 64° NW
Cosmos 2237 Rocket 2.3 00:41:31 10° NNW 00:46:42 73° N 00:46:42 73° N
Cosmos 1980 3.9 00:43:33 10° NNW 00:48:26 67° NNW 00:48:26 67° NNW
SL-16 R/B 3.3 00:51:15 10° NNW 00:56:38 41° NE 01:00:15 19° ESE
Cosmos 2100 Rocket 4.4 00:54:25 10° N 01:00:44 60° ENE 01:02:25 46° SE
ADEOS II 4.0 00:57:43 10° NE 01:01:39 21° E 01:03:14 18° ESE
Cosmos 1953 4.3 01:04:08 23° NNW 01:04:08 23° NNW 01:05:59 10° N
SeaSat 1 3.2 00:58:08 10° NE 01:02:26 45° E 01:02:26 45° E
CZ-2D R/B 2.3 00:59:38 10° NNE 01:05:04 65° ESE 01:05:06 65° ESE
USA 267 3.1 01:01:30 10° SE 01:08:03 88° SW 01:14:38 10° NW
Cosmos 1726 3.9 01:11:00 31° NNE 01:11:00 31° NNE 01:13:04 10° NNE
Cosmos 1140 Rocket 4.5 01:05:11 10° NNW 01:08:31 36° NW 01:08:31 36° NW
Cosmos 2333 Rocket 4.0 01:05:52 10° NW 01:07:57 19° WNW 01:07:57 19° WNW
Cosmos 1605 Rocket 4.3 01:04:32 10° NNW 01:10:23 51° W 01:10:23 51° W
Cosmos 1452 Rocket 3.7 01:11:19 65° E 01:11:19 65° E 01:16:22 10° NNE
Cosmos 2082 4.2 01:12:20 49° ESE 01:12:45 50° ESE 01:18:16 10° NE
Cosmos 2219 3.3 01:13:05 66° WNW 01:13:09 66° WNW 01:18:55 10° NNE
Meteor 1-11 4.1 01:08:26 10° N 01:14:05 78° E 01:14:30 73° SE
Cosmos 2058 Rocket 4.0 01:15:42 45° NNW 01:15:42 45° NNW 01:19:03 10° N
Cosmos 1459 Rocket 4.1 01:08:33 10° N 01:14:43 69° E 01:16:11 51° SE
Cosmos 1908 4.5 01:21:06 39° NNE 01:21:06 39° NNE 01:23:38 10° NNE
NOSS 3-4 (A) 3.7 01:14:19 10° NW 01:21:22 89° SW 01:29:05 10° SE
NOSS 3-4 (C) 3.7 01:14:25 10° NW 01:21:28 89° SW 01:29:11 10° SE
CZ-4B R/B 3.9 01:23:05 18° ENE 01:23:33 18° ENE 01:25:55 10° NNE
Cosmos 1461 3.8 01:25:26 42° ENE 01:25:26 42° ENE 01:28:18 10° NE
Landsat 5 4.0 01:33:03 51° NE 01:33:03 51° NE 01:36:28 10° N
SL-08 R/B 3.5 01:33:41 58° SE 01:34:31 73° ENE 01:39:29 10° N
deb Chang Zheng 4 3.8 01:32:50 10° NNE 01:37:04 62° E 01:37:04 62° E
NPP 3.6 01:33:44 10° N 01:39:07 69° WNW 01:39:34 65° WSW
Cosmos 1300 3.8 01:40:27 39° E 01:40:27 39° E 01:43:58 10° NNE
Cosmos 1242 Rocket 3.9 01:38:27 10° N 01:40:34 34° N 01:40:34 34° N
Cosmos 2227 Rocket 2.4 01:51:04 50° W 01:52:00 57° WNW 01:57:35 10° NNE
Cosmos 2058 3.5 01:49:25 10° N 01:53:27 54° ENE 01:54:23 43° SE
Cosmos 1850 Rocket 3.9 01:50:27 10° NNW 01:55:39 67° WSW 01:56:07 63° SW
H-2A R/B 3.8 01:57:48 20° NW 01:57:48 20° NW 01:59:33 10° NW
Okean 3 Rocket 4.4 01:54:41 10° N 01:58:58 48° ENE 02:01:25 23° SE
SL-16 R/B 3.1 02:00:00 36° W 02:00:00 36° W 02:05:40 10° NNW
Resurs 1-4 Rocket 2.6 01:56:51 10° N 02:01:48 42° WNW 02:02:28 40° W
IRS-P3 4.1 02:00:41 10° N 02:06:00 66° WNW 02:07:15 50° SW
ATLAS 2AS CENTAUR R/B 3.3 01:59:24 10° NW 02:06:01 35° WSW 02:06:01 35° WSW
Cosmos 1741 Rocket 4.1 02:02:00 10° NNW 02:07:12 56° WSW 02:07:52 52° SW
Cosmos 2297 Rocket 2.8 02:06:37 36° W 02:08:00 42° NW 02:13:23 10° NNE
Cosmos 1689 Rocket 3.4 02:09:05 35° E 02:09:36 38° ENE 02:12:28 10° N
AQUA 4.4 02:05:44 10° N 02:10:11 40° WNW 02:10:37 39° W
SL-08 R/B 4.5 02:03:48 10° N 02:10:14 79° W 02:13:53 28° S
Cosmos 2173 Rocket 4.3 02:06:22 10° NNW 02:12:16 45° W 02:13:43 39° SW
Cosmos 2061 Rocket 4.1 02:06:56 10° NNW 02:13:14 60° W 02:15:49 36° SSW
USA 215 4.1 02:10:08 10° NE 02:16:15 43° NNW 02:21:01 17° W
Spot 4 Rocket 4.0 02:15:13 10° NNE 02:20:25 87° ESE 02:22:39 35° SSW
Cosmos 1812 Rocket 4.1 02:20:24 40° W 02:20:34 41° WNW 02:24:43 10° N
ARIANE 5 R/B 2.5 02:16:38 10° NNE 02:21:53 77° WNW 02:23:53 39° SSW
Cosmos 1892 3.7 02:19:25 10° N 02:23:08 47° ENE 02:26:31 12° SSE
Cosmos 1943 4.3 02:20:19 10° NNW 02:25:48 45° ENE 02:31:15 10° SE
Cosmos 1356 4.1 02:26:30 41° WNW 02:26:30 41° WNW 02:29:29 10° N
Cosmos 2237 Rocket 4.1 02:27:16 10° WNW 02:28:27 13° WNW 02:28:27 13° WNW
Cosmos 1603 4.0 02:26:43 10° NNW 02:32:21 68° ENE 02:37:58 10° SE
BREEZE-M DEB (TANK) 2.3 02:32:22 41° NW 02:32:51 48° N 02:36:55 10° ENE
IRS-1D 4.3 02:30:13 10° N 02:34:56 36° WNW 02:36:31 29° WSW
Cosmos-2242 2.9 02:37:00 37° SSW 02:38:36 74° W 02:42:55 10° N
H-2A R/B 4.4 02:35:10 10° NE 02:38:46 26° E 02:42:13 10° SSE
SeaSat 1 3.6 02:35:59 10° N 02:40:15 30° NW 02:42:13 22° W
SL-16 R/B 2.8 02:35:36 10° NW 02:40:38 34° WSW 02:41:59 30° SW
Cosmos 2016 Rocket 4.5 02:35:55 10° NNW 02:41:32 38° W 02:43:56 28° SW
ADEOS II 2.2 02:36:33 10° N 02:41:42 56° WNW 02:44:11 30° SW
Cosmos 1331 Rocket 4.0 02:40:19 31° SW 02:42:52 70° WNW 02:48:11 10° NNE
CZ-2D R/B 3.7 02:40:37 10° NNW 02:44:37 21° WNW 02:46:25 18° W
Cosmos 1110 Rocket 4.2 02:45:02 30° SW 02:47:29 58° WNW 02:52:43 10° NNE
Meteor 2-1 Rocket 4.4 02:46:19 25° SSW 02:49:45 61° WNW 02:55:32 10° N
Cosmos 2233 Rocket 3.9 02:45:02 10° NNW 02:51:07 64° W 02:57:09 10° S
USA 267 4.0 02:46:15 10° S 02:51:36 27° SW 02:57:01 10° WNW
RESURS DK-1 2.9 02:48:23 10° NNW 02:52:30 60° ENE 02:56:35 10° SE
Cosmos 2151 2.9 02:50:57 10° NNW 02:55:06 60° W 02:58:11 17° S
CZ-2C R/B 2.9 02:51:08 10° N 02:55:09 62° WNW 02:57:12 27° SSW
CZ-4B R/B 2.6 02:56:23 24° WNW 02:56:23 24° WNW 02:58:37 10° NW
In-Cosmos 22 Rocket 4.5 02:58:53 10° NNW 03:04:20 47° W 03:09:36 10° SSW
Cosmos 1408 Rocket 3.5 03:00:45 10° NNW 03:05:13 69° W 03:09:38 10° S
Cosmos 2263 Rocket 2.4 03:02:55 13° SSW 03:07:59 73° ESE 03:13:42 10° NNE
OE (NEXTSAT) 4.2 03:08:13 20° W 03:10:28 77° SSW 03:13:58 10° ESE
Intercosmos 25 Rocket 4.3 03:10:03 20° W 03:10:33 21° WNW 03:13:06 10° NNW
Cosmos 1455 2.0 03:10:48 15° SSW 03:13:50 76° W 03:17:36 10° N
Cosmos 1743 Rocket 3.7 03:10:37 10° N 03:15:05 78° E 03:19:33 10° SSE
Cosmos 1300 4.5 03:15:26 15° W 03:16:15 16° WNW 03:18:41 10° NNW
Cosmos 2285 Rocket 4.0 03:10:33 10° NNW 03:16:55 68° WSW 03:23:15 10° S
Cosmos 1238 Rocket 2.2 03:15:05 10° NNW 03:18:03 59° W 03:21:16 10° S
IDEFIX/ARIANE 42P 2.8 03:13:47 10° NNE 03:19:01 74° ESE 03:24:15 10° S
Cosmos 371 Rocket 3.6 03:17:42 17° SW 03:21:17 53° WNW 03:26:04 10° NNE
CZ-2C R/B 4.0 03:17:19 10° NNE 03:21:25 32° E 03:25:32 10° SSE
SL-8 R/B 4.2 03:21:16 16° SW 03:24:57 50° SSE 03:29:38 10° ENE
Cosmos 1825 2.1 03:22:48 10° N 03:26:38 85° WSW 03:30:25 10° S
Cosmos 1354 Rocket 4.3 03:22:37 10° NNW 03:27:58 73° ENE 03:33:14 10° SSE
CRYOSAT 2 4.4 03:23:17 10° S 03:28:11 86° E 03:33:05 10° N
Meteor 1-28 Rocket 4.0 03:25:25 11° SSW 03:28:32 30° W 03:31:51 10° NNW
Cosmos 968 Rocket 3.7 03:24:04 10° NNW 03:29:15 77° ENE 03:34:26 10° SSE
PSLV R/B 3.5 03:28:04 10° N 03:32:24 73° WNW 03:36:45 10° SSW
Meteor 2-3 Rocket 3.8 03:27:38 10° N 03:33:16 83° E 03:38:50 10° SSE
Cosmos 1408 2.8 03:31:09 10° NNW 03:34:36 47° W 03:38:03 10° SSW
Cosmos 2227 Rocket 4.3 03:34:48 10° WNW 03:37:23 13° NW 03:39:58 10° N
Cosmos 1992 Rocket 4.2 03:34:18 10° SSW 03:39:30 78° ESE 03:44:46 10° NNE
Cosmos 1689 Rocket 4.4 03:41:25 10° W 03:41:25 10° W 03:41:47 10° W
Meteor 2-10 Rocket 3.7 03:38:26 10° SSW 03:43:59 74° WNW 03:49:47 10° N
Timation 1 Rocket 4.5 03:38:45 10° SSW 03:44:45 84° ESE 03:50:47 10° NNE
Okean O Rocket 4.5 03:45:20 10° NE 03:48:22 18° E 03:51:24 10° SE
Cosmos 2297 Rocket 4.5 03:52:48 10° NW 03:53:41 10° NNW 03:54:35 10° NNW
PAYLOAD A 4.1 03:49:46 10° NNE 03:55:04 85° ESE 04:00:07 10° SSW
ATLAS 5 CENTAUR R/B 3.4 03:55:51 10° SSE 03:57:23 18° ESE 03:59:11 10° ENE
Cosmos 304 Rocket 4.0 03:52:54 10° SW 03:57:38 55° WNW 04:02:23 10° NNE
Cosmos 2221 2.8 03:54:29 10° SSW 03:58:45 50° WNW 04:03:03 10° N
Lacrosse 5 rocket 3.5 03:57:01 10° S 04:00:09 22° SE 04:03:25 10° ENE
Cosmos 1842 Rocket 4.4 04:00:17 10° SW 04:04:13 31° WNW 04:08:09 10° N
BREEZE-M DEB (TANK) 4.4 03:55:25 10° WSW 04:10:08 74° NNW 04:14:11 10° ENE
